Malaysia Virtual Airlines Airport Information Service

Tawau Airport

ICAO: WBKW Country: Malaysia
Latitude: 4.31333 Longitude: 118.122
Latest Arrival : MH2660 (WMKK-WBKW) Latest Departure : MH2122 (WBKW-WBKK)


WX CaptureLIVE
Data provided by noaa.gov | Fetched at 05:49:30

METAR : WBKW 290500Z 19007KT 140V220 9999 FEW016 28/26 Q1007

TAF : WBKW 282300Z 2900/3000 VRB03KT 9999 FEW017 TEMPO 2904/2908 4000 TSRA FEW015CB SCT030


Runway Data for WBKW
Data provided by openaviationdata.com

Runway ID Mag Var Hdg Length Elevation Surface ILS Freq ILS Id ILS Slope
6 0 57° 8829 ft 57 ft Asphalt -- -- --
24 0 237° 8829 ft 57 ft Asphalt 111.3 ITWU 3

Tawau Airport, Malaysia
Use only for reference purposes



Not for navigational purposes.